THY50F LTAI-LTFJ

Flight info

Callsign THY50F
Flight time N/A
Altitude 36000
Route EKSEN UL610 ETAMP
Aircraft B738/M-SDE2E3FGHIRWXY/LB1

Departure

Time 2026-05-05 23:03
Airport Antalya International Airport (LTAI)

Arrival

Time N/A
Airport Istanbul Sabiha Gökçen International Airport (LTFJ)
Time Latitude Longitude Altitude Speed Heading
2026-05-05 22:36 36.89783 30.80016 191 ft 0 kts 89°
2026-05-05 22:52 36.89783 30.80015 218 ft 0 kts 89°
2026-05-05 22:52 36.89783 30.80011 218 ft 1 kts 89°
2026-05-05 22:53 36.89783 30.79999 204 ft 1 kts 91°
2026-05-05 22:53 36.89783 30.79988 202 ft 1 kts 92°
2026-05-05 22:53 36.89783 30.79977 196 ft 1 kts 94°
2026-05-05 22:53 36.89785 30.79957 199 ft 5 kts 96°
2026-05-05 22:54 36.89797 30.79923 201 ft 4 kts 147°
2026-05-05 22:54 36.89810 30.79916 206 ft 1 kts 168°
2026-05-05 22:54 36.89803 30.79918 206 ft 2 kts 168°
2026-05-05 22:54 36.89788 30.79920 191 ft 3 kts 177°
2026-05-05 22:55 36.89778 30.79919 197 ft 0 kts 185°
2026-05-05 22:56 36.89776 30.79919 197 ft 1 kts 185°
2026-05-05 22:56 36.89744 30.79915 191 ft 9 kts 185°
2026-05-05 22:56 36.89661 30.79903 201 ft 15 kts 184°
2026-05-05 22:56 36.89622 30.79948 194 ft 8 kts 105°
2026-05-05 22:57 36.89613 30.80038 194 ft 13 kts 95°
2026-05-05 22:57 36.89603 30.80174 196 ft 17 kts 95°
2026-05-05 22:57 36.89587 30.80335 194 ft 21 kts 98°
2026-05-05 22:57 36.89570 30.80532 191 ft 24 kts 96°
2026-05-05 22:58 36.89556 30.80660 191 ft 11 kts 110°
2026-05-05 22:58 36.89483 30.80680 203 ft 13 kts 185°
2026-05-05 22:58 36.89383 30.80666 193 ft 16 kts 186°
2026-05-05 22:58 36.89262 30.80649 193 ft 19 kts 186°
2026-05-05 22:59 36.89123 30.80630 191 ft 21 kts 186°
2026-05-05 22:59 36.88969 30.80608 194 ft 24 kts 186°
2026-05-05 22:59 36.88797 30.80584 200 ft 26 kts 187°
2026-05-05 22:59 36.88611 30.80559 205 ft 28 kts 186°
2026-05-05 23:00 36.88579 30.80654 203 ft 10 kts 37°
2026-05-05 23:00 36.88597 30.80671 195 ft 0 kts 36°
2026-05-05 23:01 36.88610 30.80682 203 ft 4 kts 36°
2026-05-05 23:01 36.88647 30.80718 198 ft 9 kts 38°
2026-05-05 23:02 36.88707 30.80787 198 ft 14 kts 43°
2026-05-05 23:02 36.88823 30.80828 191 ft 34 kts
2026-05-05 23:02 36.89386 30.80902 184 ft 124 kts
2026-05-05 23:02 36.90469 30.81056 400 ft 179 kts
2026-05-05 23:03 36.91766 30.81326 1104 ft 202 kts 17°
2026-05-05 23:03 36.93038 30.81985 2110 ft 197 kts 23°
2026-05-05 23:03 36.94343 30.82654 2692 ft 211 kts 22°
2026-05-05 23:03 36.95735 30.83349 3215 ft 219 kts 21°
2026-05-05 23:04 36.97162 30.84057 3856 ft 220 kts 20°
2026-05-05 23:04 36.98585 30.84761 4543 ft 220 kts 20°
2026-05-05 23:04 37.00061 30.85416 4923 ft 234 kts
2026-05-05 23:04 37.01712 30.85339 5357 ft 242 kts 352°
2026-05-05 23:05 37.03409 30.85071 5841 ft 253 kts 352°
2026-05-05 23:05 37.05214 30.84803 6273 ft 267 kts 353°
2026-05-05 23:05 37.07086 30.84539 7043 ft 271 kts 353°
2026-05-05 23:05 37.08948 30.84289 7971 ft 270 kts 353°
2026-05-05 23:06 37.10833 30.84045 8782 ft 274 kts 353°
2026-05-05 23:06 37.12746 30.83803 9551 ft 278 kts 353°
2026-05-05 23:06 37.14672 30.83563 9921 ft 277 kts 353°
2026-05-05 23:06 37.16593 30.83326 9974 ft 284 kts 353°
2026-05-05 23:07 37.18580 30.83083 9989 ft 282 kts 353°
2026-05-05 23:07 37.20492 30.82851 9990 ft 279 kts 353°
2026-05-05 23:07 37.22420 30.82618 9987 ft 277 kts 353°
2026-05-05 23:07 37.24333 30.82386 10015 ft 278 kts 353°
2026-05-05 23:08 37.26319 30.82144 10169 ft 298 kts 353°
2026-05-05 23:08 37.28468 30.81882 10351 ft 322 kts 353°
2026-05-05 23:08 37.30781 30.81601 10534 ft 345 kts 353°
2026-05-05 23:08 37.33228 30.81305 10864 ft 360 kts 353°
2026-05-05 23:09 37.35744 30.81002 11461 ft 366 kts 353°
2026-05-05 23:09 37.38295 30.80694 12174 ft 369 kts 353°
2026-05-05 23:09 37.40875 30.80382 12864 ft 373 kts 353°
2026-05-05 23:09 37.43489 30.80139 13512 ft 379 kts 357°
2026-05-05 23:10 37.46135 30.80201 14147 ft 384 kts
2026-05-05 23:10 37.48779 30.80338 14767 ft 386 kts
2026-05-05 23:10 37.51478 30.80485 15424 ft 389 kts
2026-05-05 23:10 37.54189 30.80624 16037 ft 392 kts
2026-05-05 23:11 37.56926 30.80757 16639 ft 395 kts
2026-05-05 23:11 37.59686 30.80885 17222 ft 399 kts
2026-05-05 23:11 37.62480 30.81012 17803 ft 401 kts
2026-05-05 23:11 37.65273 30.81138 18381 ft 404 kts
2026-05-05 23:12 37.68095 30.81265 18876 ft 407 kts
2026-05-05 23:12 37.70942 30.81393 19395 ft 410 kts
2026-05-05 23:12 37.73800 30.81522 19867 ft 413 kts
2026-05-05 23:12 37.76657 30.81215 20288 ft 414 kts 344°
2026-05-05 23:13 37.79296 30.79785 20804 ft 414 kts 328°
2026-05-05 23:13 37.81521 30.77477 21312 ft 415 kts 313°
2026-05-05 23:13 37.83456 30.74745 21781 ft 418 kts 311°
2026-05-05 23:13 37.85390 30.72033 22201 ft 421 kts 312°
2026-05-05 23:14 37.87417 30.69319 22645 ft 424 kts 316°
2026-05-05 23:14 37.89703 30.67004 23065 ft 427 kts 326°
2026-05-05 23:14 37.92291 30.65129 23501 ft 431 kts 334°
2026-05-05 23:14 37.95082 30.63613 23877 ft 433 kts 336°
2026-05-05 23:15 37.97843 30.62155 24197 ft 436 kts 336°
2026-05-05 23:15 38.00661 30.60661 24467 ft 440 kts 336°
2026-05-05 23:15 38.03483 30.59150 24819 ft 442 kts 336°
2026-05-05 23:15 38.06202 30.57678 25172 ft 442 kts 336°
2026-05-05 23:16 38.09037 30.56133 25527 ft 444 kts 336°
2026-05-05 23:16 38.11876 30.54579 25861 ft 446 kts 336°
2026-05-05 23:16 38.14737 30.53010 26167 ft 447 kts 336°
2026-05-05 23:16 38.17592 30.51444 26471 ft 449 kts 336°
2026-05-05 23:17 38.20480 30.49859 26797 ft 450 kts 336°
2026-05-05 23:17 38.23355 30.48281 27194 ft 450 kts 336°
2026-05-05 23:17 38.26226 30.46704 27649 ft 448 kts 336°
2026-05-05 23:17 38.29082 30.45132 28054 ft 447 kts 336°
2026-05-05 23:18 38.34827 30.41966 28059 ft 450 kts 336°
2026-05-05 23:18 38.40499 30.38834 28068 ft 444 kts 336°
2026-05-05 23:19 38.46175 30.35694 28072 ft 444 kts 336°
2026-05-05 23:19 38.51858 30.32546 28070 ft 445 kts 336°
2026-05-05 23:20 38.57530 30.29371 28071 ft 445 kts 336°
2026-05-05 23:20 38.63696 30.25899 28071 ft 446 kts 336°
2026-05-05 23:21 38.69392 30.22731 28081 ft 446 kts 336°
2026-05-05 23:21 38.75090 30.19557 28084 ft 446 kts 336°
2026-05-05 23:22 38.80793 30.16369 28081 ft 446 kts 336°
2026-05-05 23:22 38.86444 30.13202 28082 ft 446 kts 336°
2026-05-05 23:23 38.92141 30.10004 28086 ft 446 kts 336°
2026-05-05 23:23 38.97826 30.06794 28083 ft 446 kts 336°
2026-05-05 23:24 39.03759 30.03438 28088 ft 446 kts 336°
2026-05-05 23:24 39.11454 29.99142 28104 ft 445 kts 337°
2026-05-05 23:25 39.17106 29.95970 28091 ft 445 kts 337°
2026-05-05 23:25 39.22775 29.92743 28098 ft 444 kts 337°
2026-05-05 23:26 39.28394 29.89539 28095 ft 444 kts 337°
2026-05-05 23:26 39.37819 29.84167 28095 ft 443 kts 337°
2026-05-05 23:27 39.49161 29.77849 28109 ft 442 kts 338°
2026-05-05 23:27 39.60471 29.71513 28101 ft 442 kts 337°